Погода в Майами Гарденс

США     25°58′45″N   80°12′24″W
темп.,
°C
ветер,
м/с
пор.,
м/с
влажн.,
%
обл.,
%
осадки,
мм/ч
давл.,
гПа
погр.,
м
31 июля, сб
сб3123:00+30ю446294 2.2 1018921
02:00+30ю346426 3.7 1018799
05:00+29ююз2364100 0.1 1017574
08:00+29ююз12646 0.1 1018850
11:00+32ююв225121 0.0 10191603
14:00+35юв644430 0.1 10182095
17:00+33юв655066 0.0 10171398
20:00+31юв545875 4.6 1018700
1 августа, вс
вс123:00+30ююз235653 4.0 1019734
02:00+30ю335640 4.1 1018765
05:00+29ююз12645 0.0 1017618
08:00+30ююв126562 0.0 1018847
11:00+32юв225125 0.0 10191665
14:00+35вюв644425 0.0 10182186
17:00+34юв754729 0.0 10171426
20:00+32ююв445097 0.5 10171351
2 августа, пн
пн223:00+31ююв555996 1.3 10181135
02:00+30ююв336323 1.3 10181070
05:00+30ю236595 0.1 1017721
08:00+29ююв1267100 0.8 1018717
11:00+32юв445532 0.3 10191482
14:00+33юв654933 0.4 10171683
17:00+34юв654560 0.3 10161566
20:00+31юв5560100 0.8 1016950
3 августа, вт
вт323:00+30ююв3363100 2.8 1017719
02:00+30ююв4564100 2.9 10161023
05:00+29ю356996 1.2 1015880
08:00+30ююв456768 1.8 1016926
11:00+31ю5659100 2.7 10171289
14:00+34ююв664894 3.4 10161840
17:00+31ююв8856100 3.2 10141025
20:00+25юз3688100 32.0 1017365
4 августа, ср
ср423:00+26с3369100 4.6 1017203
02:00+27вюв356399 4.6 1015372
05:00+28юв36747 0.8 1014633
08:00+29ююв466973 2.3 1016785
11:00+31ююв565890 2.5 10171360
14:00+33юв6549100 3.7 10161788
17:00+33ююв775013 0.0 10151492
20:00+27с6670100 4.3 1018402